Weather Roundup
Issued by NWS

Home | Current Version | Previous Version | Text Only | Print | Product List | Glossary On
Versions: 1 2 3 4 5 6 7 8 9 10 11 12 13 14 15 16 17 18 19 20 21 22 23 24 25 26 27 28 29 30 31 32 33 34 35 36 37 38 39 40 41 42 43 44 45 46 47 48 49 50
000
NZUS93 KARX 301710
HRRWXR

CURRENT HOURLY OBSERVATIONS ACROSS
MUCH OF THE UPPER MISSISSIPPI VALLEY
NATIONAL WEATHER SERVICE LA CROSSE WI
1100 AM CST FRI JAN 30 2015


...SOUTHEAST MINNESOTA...


CITY           SKY/WX    TMP DP  RH WIND       PRES   REMARKS
ROCHESTER      PTSUNNY   14   7  73 S5        30.50R WCI   6
ROCHESTER/MAYO FAIR      16   6  63 CALM      30.51F
WINONA         PTSUNNY   18   7  62 CALM      30.56F
AUSTIN         MOSUNNY   18  10  73 CALM      30.51R
ALBERT LEA     FAIR      19  12  73 SW5       30.50R WCI  13
DODGE CENTER   MOSUNNY   16  10  79 CALM      30.49F
PRESTON        MOSUNNY   14   6  72 CALM      30.52R
OWATONNA       MOSUNNY   18  12  79 SW7       30.49F WCI   8
FARIBAULT      MOSUNNY   19  12  73 S7        30.50F WCI  10
$$

...ELSEWHERE IN MINNESOTA...


CITY           SKY/WX    TMP DP  RH WIND       PRES   REMARKS
MINNEAPOLIS    PTSUNNY   16   7  67 S6        30.51F WCI   7
INTNL FALLS    CLOUDY     2  -2  83 SE3       30.37S
DULUTH         PTSUNNY    7   1  76 SW3       30.40F
RED WING       PTSUNNY   16   5  62 CALM      30.53F
REDWOOD FALLS  CLOUDY    19  14  81 S13       30.47F WCI   6
MANKATO        MOSUNNY   18  10  73 S8        30.50F WCI   7
WORTHINGTON    CLOUDY    21  16  79 SW16      30.43S WCI   7
FAIRMONT       SUNNY     21  10  63 S9        30.48R WCI  11
$$

...SOUTHWEST WISCONSIN...


CITY           SKY/WX    TMP DP  RH WIND       PRES   REMARKS
LA CROSSE      PTSUNNY   17   5  59 CALM      30.55F
PRAIRIE DU CHI MOSUNNY   19   8  62 CALM      30.55F
BOSCOBEL       SUNNY     20   7  57 CALM      30.56S
LONE ROCK      MOSUNNY   18   7  62 CALM      30.55F
PLATTEVILLE    SUNNY     19  10  70 CALM      30.52F
FORT MC COY    CLOUDY    15   6  66 SW3       30.54F
CAMP DOUGLAS   CLOUDY    16  10  79 VRB2      30.52F
VIROQUA        FAIR      16   7  68 CALM      30.49F
WIS DELLS      MOSUNNY   17   7  64 CALM      30.52F
$$

...ELSEWHERE IN WISCONSIN...


CITY           SKY/WX    TMP DP  RH WIND       PRES   REMARKS
MILWAUKEE      MOSUNNY   23   6  48 VRB3      30.53R
MADISON        PTSUNNY   20   8  60 W6        30.53R WCI  12
GREEN BAY      MOSUNNY   19   6  57 NW7       30.52F WCI  10
EAU CLAIRE     CLOUDY    11   3  70 W6        30.52S WCI   1
BLACK RVR FLS  FAIR      15   4  62 CALM      30.53S
MEDFORD        PTSUNNY   11   3  70 CALM      30.45F
WAUSAU         CLOUDY    14   4  64 CALM      30.46F
WIS RAPIDS     MOSUNNY   17   5  59 NW3       30.52R
MARSHFIELD     MOSUNNY   13   5  70 CALM      30.48F
RICE LAKE      PTSUNNY    8   1  72 SW3       30.50F
$$

...NORTHEAST IOWA...


CITY           SKY/WX    TMP DP  RH WIND       PRES   REMARKS
DECORAH        MOSUNNY   16   7  67 VRB5      30.50F WCI   9
MASON CITY     SUNNY     20  14  77 S10       30.51F WCI   9
CHARLES CITY   MOSUNNY   19   9  63 SE3       30.52F
OELWEIN        MOSUNNY   19   9  63 CALM      30.54S
$$

...ELSEWHERE IN IOWA...


CITY           SKY/WX    TMP DP  RH WIND       PRES   REMARKS
DES MOINES     MOSUNNY   24  13  62 SW3       30.56S
IOWA CITY      SUNNY     24  14  65 SE5       30.57F WCI  18
FORT DODGE     SUNNY     23  16  74 S9        30.52F WCI  13
$$

...NORTHERN ILLINOIS...


CITY           SKY/WX    TMP DP  RH WIND       PRES   REMARKS
CHICAGO-OHARE  MOSUNNY   26   7  44 VRB3      30.52S
CHICAGO-MIDWAY MOSUNNY   28   9  44 CALM      30.53R
MOLINE         SUNNY     24  11  57 E3        30.54F
ROCKFORD       MOSUNNY   25   8  48 N3        30.56S
PEORIA         SUNNY     30  16  56 E3        30.55F
$$

NOTE: "FAIR" INDICATES FEW OR NO CLOUDS BELOW 12,000 FEET WITH NO
SIGNIFICANT WEATHER AND/OR OBSTRUCTIONS TO VISIBILITY. WIND
SPEEDS ARE IN MILES-PER-HOUR.



USA.gov is the U.S. government's official web portal to all federal, state and local government web resources and services.